{"data":{"norad_id":63174,"epoch":"2026-09-22T20:54:26.540928Z","epoch_age_seconds":105882,"freshness":"FRESH","line1":"1 63174U 25046R   26265.87114052  .00000093  00000+0  12558-3 0  9992","line2":"2 63174  88.9642 290.3482 0013240  42.5903 317.6272 13.51019797 85870","mean_motion":13.51019797,"eccentricity":0.001324,"inclination_deg":88.9642,"raan_deg":290.3482,"arg_perigee_deg":42.5903,"mean_anomaly_deg":317.6272,"bstar":0.00012558,"rev_number":8587,"period_min":106.58615093558,"perigee_km":1058.6494796027,"apogee_km":1078.3681977836,"semimajor_km":7446.6458386932,"source":"CELESTRAK","updated_at":"2026-09-23T09:00:21.882624Z"}}